TimeMST,TemperatureF,Dew PointF,Humidity,Sea Level PressureIn,VisibilityMPH,Wind Direction,Wind SpeedMPH,Gust SpeedMPH,PrecipitationIn,Events,Conditions,WindDirDegrees,DateUTC
12:53 AM,7.0,1.9,80,30.86,3.0,North,8.1,-,0.00,Snow,Light Snow,360,2013-01-16 07:53:00
1:53 AM,7.0,1.9,80,30.87,4.0,North,5.8,-,0.00,Snow,Light Snow,10,2013-01-16 08:53:00
2:53 AM,7.0,1.9,80,30.87,5.0,North,6.9,-,0.00,Snow,Light Snow,10,2013-01-16 09:53:00
3:53 AM,6.1,1.0,80,30.88,3.0,North,6.9,-,0.00,Snow,Light Snow,360,2013-01-16 10:53:00
4:53 AM,7.0,1.0,77,30.86,4.0,North,6.9,-,0.00,Snow,Light Snow,10,2013-01-16 11:53:00
5:50 AM,8.6,1.4,73,30.61,2.5,NNE,6.9,-,0.00,Snow,Light Snow,30,2013-01-16 12:50:00
5:53 AM,8.1,1.9,76,30.86,2.5,NNE,6.9,-,0.00,Snow,Light Snow,30,2013-01-16 12:53:00
6:01 AM,8.6,1.4,73,30.61,3.0,NNE,5.8,-,0.00,Snow,Light Snow,20,2013-01-16 13:01:00
6:37 AM,6.8,1.4,79,30.62,2.5,NE,3.5,-,0.00,Snow,Light Snow,40,2013-01-16 13:37:00
6:53 AM,7.0,1.9,80,30.87,3.0,NE,4.6,-,0.00,Snow,Light Snow,40,2013-01-16 13:53:00
7:53 AM,7.0,1.9,80,30.88,2.5,North,5.8,-,0.00,Fog-Snow,Light Snow,360,2013-01-16 14:53:00
8:53 AM,8.1,3.0,80,30.89,2.5,NNE,5.8,-,0.00,Fog-Snow,Light Snow,20,2013-01-16 15:53:00
9:23 AM,8.6,3.2,79,30.65,3.0,North,4.6,-,0.00,Fog,Shallow Fog,10,2013-01-16 16:23:00
9:25 AM,8.6,3.2,79,30.64,4.0,North,5.8,-,0.00,Fog-Snow,Light Snow,10,2013-01-16 16:25:00
9:53 AM,10.0,3.9,76,30.90,3.0,North,4.6,-,0.00,Fog-Snow,Light Snow,360,2013-01-16 16:53:00
10:11 AM,10.4,3.2,73,30.65,2.0,NNE,5.8,-,0.00,Fog-Snow,Light Snow,20,2013-01-16 17:11:00
10:53 AM,10.9,6.1,81,30.90,2.0,North,6.9,-,0.00,Fog-Snow,Light Snow,10,2013-01-16 17:53:00
11:53 AM,10.9,6.1,81,30.89,2.5,North,6.9,-,0.00,Fog-Snow,Light Snow,350,2013-01-16 18:53:00
1:53 PM,14.0,9.0,80,30.84,3.0,NNW,4.6,-,0.00,,Haze,340,2013-01-16 20:53:00
2:53 PM,15.1,9.0,77,30.83,5.0,North,5.8,-,N/A,,Haze,350,2013-01-16 21:53:00
3:53 PM,15.1,9.0,77,30.83,6.0,NNW,6.9,-,N/A,,Haze,340,2013-01-16 22:53:00
4:53 PM,15.1,9.0,77,30.84,10.0,North,6.9,-,N/A,,Overcast,360,2013-01-16 23:53:00
5:53 PM,12.0,7.0,80,30.85,10.0,North,8.1,-,N/A,,Mostly Cloudy,360,2013-01-17 00:53:00
6:53 PM,12.9,8.1,81,30.86,10.0,North,8.1,-,N/A,,Overcast,360,2013-01-17 01:53:00
7:53 PM,14.0,8.1,77,30.86,10.0,North,8.1,-,N/A,,Overcast,360,2013-01-17 02:53:00
8:38 PM,10.4,6.8,85,30.62,10.0,North,4.6,-,N/A,,Scattered Clouds,10,2013-01-17 03:38:00
8:53 PM,9.0,5.0,84,30.87,10.0,North,3.5,-,N/A,,Clear,10,2013-01-17 03:53:00
9:53 PM,7.0,3.0,84,30.87,9.0,North,6.9,-,N/A,,Clear,10,2013-01-17 04:53:00
10:53 PM,-0.9,-4.0,87,30.89,7.0,North,4.6,-,N/A,,Clear,10,2013-01-17 05:53:00
11:53 PM,1.9,-0.9,88,30.88,9.0,NNE,6.9,-,N/A,,Clear,20,2013-01-17 06:53:00